Location: *
(0.1100°N, 5.5000°E)
Time: 15:02:45
(UTC+00:00)

Cosmos 1802 Rocket - Pass Details

Date: 07 December 2022
Orbit: 954 x 1011 km, 82.9° (Epoch: 02 February)

Event Time Altitude Azimuth Distance (km) Brightness Sun altitude
Rises 19:36:10 0° 179° (S) 3,629 7.3 -29.0°
Reaches altitude 10° 19:38:40 10° 177° (S) 2,681 6.5 -29.6°
Enters shadow 19:43:03 48° 160° (SSE) 1,228 4.4 -30.5°
